| time (UTC) | temp F | wind direction | speed knots | gust knots | rain 1hr in | rain 24hr in | rain mn in | humidity % | barometer mb |
| 20260507105554 | 36 | 115 | 1.7 | 3.5 | 0.00 | 0.00 | 0.00 | 87 | 1020.0 |
| 20260507105054 | 36 | 119 | 1.7 | 3.5 | 0.00 | 0.00 | 0.00 | 88 | 1020.1 |
| 20260507104558 | 36 | 115 | 1.7 | 3.5 | 0.00 | 0.00 | 0.00 | 87 | 1020.3 |
| 20260507104055 | 36 | 114 | 1.7 | 3.5 | 0.00 | 0.00 | 0.00 | 88 | 1020.2 |
| 20260507103553 | 36 | 119 | 1.7 | 4.3 | 0.00 | 0.00 | 0.00 | 87 | 1020.2 |
| 20260507103114 | 36 | 119 | 1.7 | 4.3 | 0.00 | 0.00 | 0.00 | 87 | 1020.2 |
| 20260507102555 | 36 | 102 | 0.9 | 3.5 | 0.00 | 0.00 | 0.00 | 87 | 1020.2 |
| 20260507102055 | 36 | 137 | 0.9 | 2.6 | 0.00 | 0.00 | 0.00 | 87 | 1020.2 |
| 20260507101601 | 36 | 126 | 1.7 | 2.6 | 0.00 | 0.00 | 0.00 | 87 | 1020.2 |
| 20260507101054 | 36 | 126 | 0.9 | 2.6 | 0.00 | 0.00 | 0.00 | 87 | 1020.2 |
| 20260507100554 | 36 | 144 | 0.9 | 3.5 | 0.00 | 0.00 | 0.00 | 87 | 1020.1 |
| 20260507100113 | 36 | 126 | 1.7 | 3.5 | 0.00 | 0.00 | 0.00 | 87 | 1020.1 |
| 20260507095559 | 36 | 119 | 1.7 | 3.5 | 0.00 | 0.00 | 0.00 | 87 | 1020.1 |
| 20260507095055 | 36 | 153 | 1.7 | 3.5 | 0.00 | 0.00 | 0.00 | 87 | 1020.1 |
| 20260507094556 | 36 | 137 | 1.7 | 3.5 | 0.00 | 0.00 | 0.00 | 87 | 1020.0 |
| 20260507094055 | 36 | 119 | 1.7 | 3.5 | 0.00 | 0.00 | 0.00 | 87 | 1019.9 |
| 20260507093555 | 36 | 113 | 1.7 | 3.5 | 0.00 | 0.00 | 0.00 | 87 | 1019.8 |
| 20260507093109 | 36 | 134 | 1.7 | 3.5 | 0.00 | 0.00 | 0.00 | 87 | 1019.8 |
| 20260507092555 | 37 | 121 | 1.7 | 3.5 | 0.00 | 0.00 | 0.00 | 87 | 1019.8 |
| 20260507092055 | 37 | 126 | 1.7 | 3.5 | 0.00 | 0.00 | 0.00 | 86 | 1019.8 |
| 20260507091603 | 37 | 128 | 1.7 | 3.5 | 0.00 | 0.00 | 0.00 | 86 | 1019.8 |
| 20260507091055 | 37 | 110 | 1.7 | 3.5 | 0.00 | 0.00 | 0.00 | 86 | 1019.7 |
| 20260507090556 | 37 | 123 | 1.7 | 5.2 | 0.00 | 0.00 | 0.00 | 86 | 1019.6 |
| 20260507090103 | 37 | 119 | 1.7 | 5.2 | 0.00 | 0.00 | 0.00 | 86 | 1019.6 |
| 20260507085555 | 37 | 113 | 2.6 | 5.2 | 0.00 | 0.00 | 0.00 | 86 | 1019.6 |
| 20260507085055 | 37 | 115 | 2.6 | 5.2 | 0.00 | 0.00 | 0.00 | 86 | 1019.5 |
| 20260507084559 | 37 | 132 | 2.6 | 5.2 | 0.00 | 0.00 | 0.00 | 86 | 1019.4 |
| 20260507084054 | 37 | 126 | 2.6 | 5.2 | 0.00 | 0.00 | 0.00 | 87 | 1019.3 |
| 20260507083555 | 37 | 113 | 1.7 | 5.2 | 0.00 | 0.00 | 0.00 | 86 | 1019.3 |
| 20260507083112 | 37 | 137 | 1.7 | 5.2 | 0.00 | 0.00 | 0.00 | 87 | 1019.1 |
| 20260507082556 | 37 | 212 | 2.6 | 5.2 | 0.00 | 0.00 | 0.00 | 87 | 1019.1 |
| 20260507082058 | 37 | 139 | 2.6 | 3.5 | 0.00 | 0.00 | 0.00 | 87 | 1019.0 |
| 20260507081601 | 37 | 121 | 1.7 | 3.5 | 0.00 | 0.00 | 0.00 | 87 | 1018.9 |
| 20260507081055 | 37 | 113 | 1.7 | 6.1 | 0.00 | 0.00 | 0.00 | 87 | 1018.9 |
| 20260507080554 | 37 | 119 | 1.7 | 6.1 | 0.00 | 0.00 | 0.00 | 87 | 1018.8 |
| 20260507080059 | 37 | 131 | 1.7 | 6.1 | 0.00 | 0.00 | 0.00 | 87 | 1018.9 |
| 20260507075553 | 37 | 119 | 1.7 | 6.1 | 0.00 | 0.03 | 0.00 | 87 | 1018.9 |
| 20260507075055 | 37 | 119 | 1.7 | 3.5 | 0.00 | 0.03 | 0.00 | 87 | 1018.8 |
| 20260507074616 | 37 | 133 | 1.7 | 2.6 | 0.00 | 0.03 | 0.00 | 87 | 1018.8 |
| 20260507074054 | 37 | 103 | 0.9 | 2.6 | 0.00 | 0.03 | 0.00 | 86 | 1018.8 |
| 20260507073555 | 38 | 128 | 1.7 | 2.6 | 0.00 | 0.03 | 0.00 | 86 | 1018.8 |
| 20260507073101 | 38 | 108 | 0.9 | 2.6 | 0.00 | 0.03 | 0.00 | 85 | 1018.8 |
| 20260507072555 | 38 | 137 | 0.9 | 6.1 | 0.00 | 0.03 | 0.00 | 84 | 1018.7 |
| 20260507072055 | 38 | 126 | 0.9 | 6.1 | 0.00 | 0.03 | 0.00 | 84 | 1018.8 |
| 20260507071554 | 38 | 142 | 1.7 | 5.2 | 0.00 | 0.03 | 0.00 | 84 | 1018.7 |
| 20260507071051 | 38 | 128 | 1.7 | 6.1 | 0.00 | 0.03 | 0.00 | 84 | 1018.7 |
| 20260507070550 | 38 | 163 | 1.7 | 7.0 | 0.00 | 0.03 | 0.00 | 85 | 1018.7 |
| 20260507070053 | 38 | 146 | 2.6 | 7.0 | 0.00 | 0.03 | 0.00 | 85 | 1018.6 |
| 20260507065551 | 38 | 128 | 1.7 | 4.3 | 0.00 | 0.03 | 0.00 | 86 | 1018.6 |
| 20260507065050 | 38 | 87 | 1.7 | 4.3 | 0.00 | 0.03 | 0.00 | 86 | 1018.5 |
| 20260507064555 | 38 | 137 | 1.7 | 3.5 | 0.00 | 0.03 | 0.00 | 87 | 1018.5 |
| 20260507064054 | 38 | 126 | 0.9 | 2.6 | 0.00 | 0.03 | 0.00 | 86 | 1018.4 |
| 20260507063554 | 38 | 132 | 0.9 | 2.6 | 0.00 | 0.03 | 0.00 | 86 | 1018.4 |
| 20260507063056 | 38 | 111 | 0.9 | 2.6 | 0.00 | 0.03 | 0.00 | 86 | 1018.3 |
| 20260507062552 | 38 | 124 | 0.9 | 2.6 | 0.00 | 0.03 | 0.00 | 86 | 1018.2 |
| 20260507062051 | 38 | 113 | 0.9 | 3.5 | 0.00 | 0.03 | 0.00 | 86 | 1018.3 |
| 20260507061601 | 38 | 137 | 0.9 | 3.5 | 0.00 | 0.03 | 0.00 | 86 | 1018.2 |
| 20260507061051 | 38 | 110 | 0.9 | 3.5 | 0.00 | 0.03 | 0.00 | 86 | 1018.1 |
| 20260507060550 | 39 | 133 | 0.9 | 3.5 | 0.00 | 0.03 | 0.00 | 86 | 1018.1 |
| 20260507060059 | 39 | 110 | 1.7 | 3.5 | 0.00 | 0.03 | 0.00 | 86 | 1018.0 |
| 20260507055551 | 39 | 123 | 1.7 | 3.5 | 0.00 | 0.03 | 0.00 | 86 | 1018.0 |
| 20260507055053 | 39 | 123 | 0.9 | 3.5 | 0.00 | 0.03 | 0.00 | 86 | 1017.9 |
| 20260507054555 | 39 | 137 | 0.9 | 5.2 | 0.00 | 0.03 | 0.00 | 86 | 1017.9 |
| 20260507054051 | 39 | 102 | 1.7 | 5.2 | 0.00 | 0.03 | 0.00 | 85 | 1017.9 |
| 20260507053551 | 39 | 205 | 1.7 | 7.8 | 0.00 | 0.03 | 0.00 | 85 | 1017.9 |
| 20260507053057 | 39 | 144 | 1.7 | 7.8 | 0.00 | 0.03 | 0.00 | 84 | 1017.9 |
| 20260507052553 | 40 | 144 | 1.7 | 6.1 | 0.00 | 0.03 | 0.00 | 84 | 1017.8 |
| 20260507052050 | 40 | 178 | 1.7 | 6.1 | 0.00 | 0.03 | 0.00 | 84 | 1017.8 |
| 20260507051554 | 40 | 133 | 1.7 | 6.1 | 0.00 | 0.03 | 0.00 | 83 | 1017.7 |
| 20260507051054 | 40 | 93 | 1.7 | 7.8 | 0.00 | 0.03 | 0.00 | 84 | 1017.8 |
| 20260507050554 | 40 | 119 | 1.7 | 7.8 | 0.00 | 0.03 | 0.00 | 84 | 1017.7 |
| 20260507050059 | 40 | 163 | 1.7 | 7.8 | 0.00 | 0.03 | 0.00 | 84 | 1017.7 |
| 20260507045553 | 40 | 171 | 1.7 | 7.8 | 0.00 | 0.03 | 0.00 | 84 | 1017.6 |
| 20260507045051 | 40 | 175 | 3.5 | 7.8 | 0.00 | 0.03 | 0.00 | 84 | 1017.7 |
| 20260507044553 | 40 | 119 | 2.6 | 6.1 | 0.00 | 0.03 | 0.00 | 83 | 1017.6 |
| 20260507044053 | 41 | 150 | 1.7 | 6.1 | 0.00 | 0.03 | 0.00 | 83 | 1017.6 |
| 20260507043551 | 41 | 139 | 2.6 | 7.0 | 0.00 | 0.03 | 0.00 | 82 | 1017.6 |
| 20260507043101 | 41 | 142 | 2.6 | 7.0 | 0.00 | 0.03 | 0.00 | 82 | 1017.5 |
| 20260507042551 | 41 | 162 | 1.7 | 5.2 | 0.00 | 0.03 | 0.00 | 81 | 1017.5 |
| 20260507042050 | 42 | 149 | 2.6 | 8.7 | 0.00 | 0.03 | 0.00 | 80 | 1017.5 |
| 20260507041553 | 42 | 149 | 3.5 | 8.7 | 0.00 | 0.03 | 0.00 | 78 | 1017.5 |
| 20260507041050 | 42 | 144 | 2.6 | 7.0 | 0.00 | 0.03 | 0.00 | 78 | 1017.5 |
| 20260507040551 | 42 | 119 | 1.7 | 7.0 | 0.00 | 0.03 | 0.00 | 79 | 1017.4 |
| 20260507040055 | 42 | 86 | 1.7 | 6.1 | 0.00 | 0.03 | 0.00 | 80 | 1017.4 |
| 20260507035551 | 43 | 102 | 1.7 | 8.7 | 0.00 | 0.03 | 0.00 | 79 | 1017.4 |
| 20260507035050 | 43 | 131 | 2.6 | 8.7 | 0.00 | 0.03 | 0.00 | 78 | 1017.3 |
| 20260507034553 | 43 | 123 | 3.5 | 8.7 | 0.00 | 0.03 | 0.00 | 80 | 1017.3 |
| 20260507034052 | 43 | 161 | 2.6 | 7.0 | 0.00 | 0.03 | 0.00 | 80 | 1017.3 |
| 20260507033551 | 43 | 132 | 1.7 | 6.1 | 0.00 | 0.03 | 0.00 | 81 | 1017.2 |
| 20260507033055 | 43 | 117 | 1.7 | 6.1 | 0.00 | 0.03 | 0.00 | 81 | 1017.3 |
| 20260507032551 | 43 | 110 | 2.6 | 5.2 | 0.00 | 0.03 | 0.00 | 81 | 1017.3 |
| 20260507032055 | 42 | 153 | 2.6 | 7.0 | 0.00 | 0.03 | 0.00 | 80 | 1017.3 |
| 20260507031553 | 43 | 126 | 1.7 | 7.0 | 0.00 | 0.03 | 0.00 | 80 | 1017.1 |
| 20260507031054 | 43 | 150 | 1.7 | 7.8 | 0.00 | 0.03 | 0.00 | 80 | 1017.1 |
| 20260507030552 | 43 | 130 | 1.7 | 7.8 | 0.00 | 0.03 | 0.00 | 81 | 1017.0 |
| 20260507030053 | 43 | 121 | 1.7 | 7.8 | 0.00 | 0.03 | 0.00 | 80 | 1017.0 |
| 20260507025554 | 43 | 139 | 2.6 | 7.8 | 0.00 | 0.03 | 0.00 | 80 | 1017.0 |
| 20260507025054 | 43 | 139 | 2.6 | 7.8 | 0.00 | 0.03 | 0.00 | 79 | 1017.0 |
| 20260507024611 | 43 | 134 | 2.6 | 6.1 | 0.00 | 0.03 | 0.00 | 80 | 1017.0 |
| 20260507024050 | 43 | 164 | 0.9 | 2.6 | 0.00 | 0.03 | 0.00 | 83 | 1017.0 |
| 20260507023557 | 42 | 137 | 0.9 | 3.5 | 0.00 | 0.03 | 0.00 | 82 | 1016.9 |
| 20260507023056 | 43 | 171 | 0.0 | 4.3 | 0.00 | 0.03 | 0.00 | 82 | 1016.8 |
| 20260507022554 | 43 | 265 | 1.7 | 6.1 | 0.00 | 0.03 | 0.00 | 81 | 1016.8 |
| 20260507022054 | 43 | 183 | 1.7 | 6.1 | 0.00 | 0.03 | 0.00 | 80 | 1016.8 |
| 20260507021557 | 43 | 156 | 2.6 | 6.1 | 0.00 | 0.03 | 0.00 | 79 | 1016.8 |
| 20260507021050 | 43 | 141 | 0.9 | 6.1 | 0.00 | 0.03 | 0.00 | 79 | 1016.8 |
| 20260507020551 | 44 | 144 | 2.6 | 6.1 | 0.00 | 0.03 | 0.00 | 78 | 1016.7 |
| 20260507020108 | 44 | 146 | 0.9 | 5.2 | 0.00 | 0.03 | 0.00 | 78 | 1016.7 |
| 20260507015551 | 44 | 0 | 0.9 | 5.2 | 0.00 | 0.03 | 0.00 | 77 | 1016.7 |
| 20260507015051 | 44 | 207 | 2.6 | 5.2 | 0.00 | 0.03 | 0.00 | 76 | 1016.6 |
| 20260507014606 | 44 | 200 | 0.9 | 5.2 | 0.00 | 0.03 | 0.00 | 75 | 1016.6 |
| 20260507014051 | 44 | 184 | 2.6 | 7.8 | 0.00 | 0.03 | 0.00 | 73 | 1016.6 |
| 20260507013552 | 44 | 247 | 2.6 | 7.8 | 0.00 | 0.03 | 0.00 | 73 | 1016.5 |
| 20260507013054 | 45 | 129 | 2.6 | 7.8 | 0.00 | 0.03 | 0.00 | 72 | 1016.5 |
| 20260507012554 | 45 | 160 | 2.6 | 6.1 | 0.00 | 0.03 | 0.00 | 73 | 1016.5 |
| 20260507012051 | 44 | 175 | 2.6 | 6.1 | 0.00 | 0.03 | 0.00 | 75 | 1016.6 |
| 20260507011604 | 44 | 165 | 2.6 | 6.1 | 0.00 | 0.03 | 0.00 | 75 | 1016.5 |
| 20260507011050 | 44 | 173 | 0.0 | 3.5 | 0.00 | 0.03 | 0.00 | 78 | 1016.6 |
| 20260507010551 | 43 | 161 | 0.9 | 3.5 | 0.00 | 0.03 | 0.00 | 78 | 1016.6 |
| 20260507010054 | 43 | 115 | 1.7 | 6.1 | 0.00 | 0.03 | 0.00 | 78 | 1016.6 |
| 20260507005552 | 43 | 157 | 1.7 | 7.0 | 0.00 | 0.03 | 0.00 | 80 | 1016.7 |
| 20260507005052 | 43 | 178 | 0.9 | 7.0 | 0.00 | 0.03 | 0.00 | 81 | 1016.6 |
| 20260507004556 | 43 | 178 | 1.7 | 7.0 | 0.00 | 0.03 | 0.00 | 80 | 1016.6 |
| 20260507004051 | 44 | 265 | 0.9 | 7.0 | 0.00 | 0.03 | 0.00 | 80 | 1016.6 |
| 20260507003552 | 44 | 218 | 1.7 | 7.0 | 0.00 | 0.03 | 0.00 | 78 | 1016.6 |
| 20260507003057 | 45 | 162 | 2.6 | 7.0 | 0.00 | 0.03 | 0.00 | 72 | 1016.5 |
| 20260507002551 | 45 | 137 | 1.7 | 7.0 | 0.00 | 0.03 | 0.00 | 70 | 1016.5 |
| 20260507002057 | 45 | 161 | 0.9 | 6.1 | 0.00 | 0.03 | 0.00 | 70 | 1016.5 |
| 20260507001557 | 45 | 0 | 1.7 | 6.1 | 0.00 | 0.03 | 0.00 | 71 | 1016.4 |
| 20260507001053 | 45 | 165 | 1.7 | 7.8 | 0.00 | 0.03 | 0.00 | 70 | 1016.4 |
| 20260507000551 | 45 | 227 | 2.6 | 8.7 | 0.00 | 0.03 | 0.00 | 70 | 1016.5 |
| 20260507000056 | 45 | 221 | 4.3 | 8.7 | 0.00 | 0.03 | 0.00 | 71 | 1016.5 |
| 20260506235552 | 45 | 225 | 3.5 | 8.7 | 0.00 | 0.03 | 0.00 | 72 | 1016.4 |
| 20260506235051 | 45 | 139 | 3.5 | 8.7 | 0.00 | 0.03 | 0.00 | 70 | 1016.3 |
| 20260506234601 | 45 | 196 | 2.6 | 7.8 | 0.00 | 0.03 | 0.00 | 69 | 1016.4 |
| 20260506234055 | 45 | 142 | 1.7 | 6.1 | 0.00 | 0.03 | 0.00 | 71 | 1016.3 |
| 20260506233556 | 45 | 249 | 1.7 | 6.1 | 0.00 | 0.03 | 0.00 | 70 | 1016.3 |
| 20260506233058 | 45 | 216 | 1.7 | 5.2 | 0.00 | 0.03 | 0.00 | 71 | 1016.3 |
| 20260506232553 | 45 | 146 | 1.7 | 5.2 | 0.00 | 0.03 | 0.00 | 73 | 1016.2 |
| 20260506232053 | 45 | 218 | 1.7 | 7.0 | 0.00 | 0.03 | 0.00 | 74 | 1016.3 |
| 20260506231558 | 45 | 129 | 1.7 | 7.0 | 0.00 | 0.03 | 0.00 | 74 | 1016.2 |
| 20260506231056 | 45 | 171 | 2.6 | 7.0 | 0.00 | 0.03 | 0.00 | 74 | 1016.3 |
| 20260506230552 | 44 | 165 | 1.7 | 5.2 | 0.00 | 0.03 | 0.00 | 73 | 1016.2 |
| 20260506230059 | 44 | 217 | 1.7 | 5.2 | 0.00 | 0.03 | 0.00 | 74 | 1016.1 |
| 20260506225554 | 44 | 200 | 1.7 | 5.2 | 0.00 | 0.03 | 0.00 | 75 | 1016.2 |
| 20260506225053 | 44 | 254 | 1.7 | 3.5 | 0.00 | 0.03 | 0.00 | 75 | 1016.2 |
| 20260506224556 | 44 | 241 | 0.9 | 6.1 | 0.00 | 0.03 | 0.00 | 74 | 1016.1 |
| 20260506224053 | 44 | 265 | 1.7 | 6.1 | 0.00 | 0.03 | 0.00 | 74 | 1016.1 |
| 20260506223553 | 44 | 294 | 1.7 | 6.1 | 0.00 | 0.03 | 0.00 | 74 | 1016.2 |
| 20260506223057 | 44 | 147 | 1.7 | 6.1 | 0.00 | 0.03 | 0.00 | 74 | 1016.1 |
| 20260506222553 | 44 | 228 | 2.6 | 6.1 | 0.00 | 0.03 | 0.00 | 74 | 1016.0 |
| 20260506222051 | 44 | 193 | 1.7 | 6.1 | 0.00 | 0.03 | 0.00 | 76 | 1016.1 |
| 20260506221559 | 43 | 265 | 2.6 | 7.0 | 0.00 | 0.03 | 0.00 | 76 | 1016.1 |
| 20260506221054 | 43 | 225 | 1.7 | 7.0 | 0.00 | 0.03 | 0.00 | 77 | 1016.1 |
| 20260506220553 | 43 | 186 | 2.6 | 7.0 | 0.00 | 0.03 | 0.00 | 78 | 1016.1 |
| 20260506220057 | 43 | 275 | 1.7 | 5.2 | 0.00 | 0.03 | 0.00 | 78 | 1016.1 |
| 20260506215552 | 43 | 131 | 0.9 | 3.5 | 0.00 | 0.03 | 0.00 | 80 | 1016.0 |
| 20260506215054 | 43 | 221 | 0.9 | 3.5 | 0.00 | 0.03 | 0.00 | 81 | 1016.1 |
| 20260506214555 | 43 | 208 | 0.9 | 3.5 | 0.00 | 0.03 | 0.00 | 80 | 1016.1 |
| 20260506214054 | 43 | 265 | 0.9 | 3.5 | 0.00 | 0.03 | 0.00 | 78 | 1016.0 |
| 20260506213553 | 43 | 0 | 0.9 | 3.5 | 0.00 | 0.03 | 0.00 | 77 | 1016.0 |
| 20260506213122 | 43 | 286 | 0.9 | 3.5 | 0.00 | 0.03 | 0.00 | 78 | 1015.9 |
| 20260506212555 | 43 | 212 | 0.9 | 4.3 | 0.00 | 0.03 | 0.00 | 78 | 1015.9 |
| 20260506212055 | 43 | 243 | 0.9 | 4.3 | 0.00 | 0.03 | 0.00 | 78 | 1015.9 |
| 20260506211605 | 43 | 138 | 0.9 | 3.5 | 0.00 | 0.03 | 0.00 | 80 | 1015.8 |
| 20260506211053 | 43 | 123 | 1.7 | 3.5 | 0.00 | 0.03 | 0.00 | 80 | 1015.8 |
| 20260506210554 | 43 | 196 | 0.9 | 6.1 | 0.00 | 0.03 | 0.00 | 79 | 1015.8 |
| 20260506205553 | 42 | 131 | 1.7 | 7.0 | 0.00 | 0.03 | 0.00 | 77 | 1015.8 |
| 20260506205053 | 42 | 205 | 1.7 | 7.0 | 0.00 | 0.03 | 0.00 | 78 | 1015.8 |
| 20260506204557 | 42 | 212 | 1.7 | 6.1 | 0.00 | 0.03 | 0.00 | 78 | 1015.7 |
| 20260506204053 | 42 | 123 | 0.9 | 7.0 | 0.00 | 0.03 | 0.00 | 78 | 1015.7 |
| 20260506203553 | 42 | 126 | 1.7 | 7.0 | 0.00 | 0.03 | 0.00 | 77 | 1015.7 |
| 20260506203053 | 42 | 291 | 0.9 | 6.1 | 0.00 | 0.03 | 0.00 | 79 | 1015.7 |
| 20260506202555 | 42 | 178 | 1.7 | 6.1 | 0.00 | 0.03 | 0.00 | 76 | 1015.6 |
| 20260506202057 | 42 | 165 | 1.7 | 6.1 | 0.00 | 0.03 | 0.00 | 79 | 1015.6 |
| 20260506201600 | 42 | 221 | 0.9 | 5.2 | 0.00 | 0.03 | 0.00 | 80 | 1015.6 |
| 20260506201056 | 42 | 227 | 1.7 | 5.2 | 0.00 | 0.03 | 0.00 | 79 | 1015.5 |
| 20260506200552 | 42 | 142 | 1.7 | 6.1 | 0.00 | 0.03 | 0.00 | 80 | 1015.5 |
| 20260506200101 | 42 | 309 | 0.9 | 6.1 | 0.00 | 0.03 | 0.00 | 80 | 1015.5 |
| 20260506195552 | 42 | 153 | 1.7 | 6.1 | 0.00 | 0.03 | 0.00 | 79 | 1015.4 |
| 20260506195052 | 42 | 0 | 1.7 | 4.3 | 0.00 | 0.03 | 0.00 | 81 | 1015.3 |
| 20260506194623 | 41 | 178 | 1.7 | 5.2 | 0.00 | 0.03 | 0.00 | 81 | 1015.3 |
| 20260506194054 | 41 | 163 | 0.9 | 5.2 | 0.00 | 0.03 | 0.00 | 83 | 1015.4 |
| 20260506193554 | 41 | 142 | 0.9 | 3.5 | 0.00 | 0.03 | 0.00 | 82 | 1015.3 |
| 20260506193057 | 41 | 157 | 0.9 | 4.3 | 0.00 | 0.03 | 0.00 | 81 | 1015.3 |
| 20260506192554 | 41 | 167 | 0.9 | 5.2 | 0.00 | 0.03 | 0.00 | 81 | 1015.3 |
| 20260506192055 | 41 | 153 | 1.7 | 5.2 | 0.00 | 0.03 | 0.00 | 79 | 1015.3 |
| 20260506191607 | 41 | 277 | 0.9 | 2.6 | 0.00 | 0.03 | 0.00 | 79 | 1015.2 |
| 20260506191053 | 41 | 221 | 0.9 | 5.2 | 0.00 | 0.03 | 0.00 | 81 | 1015.3 |
| 20260506190553 | 41 | 0 | 1.7 | 5.2 | 0.00 | 0.03 | 0.00 | 80 | 1015.2 |
| 20260506190058 | 41 | 0 | 1.7 | 5.2 | 0.00 | 0.03 | 0.00 | 81 | 1015.2 |
| 20260506185552 | 41 | 196 | 1.7 | 4.3 | 0.00 | 0.03 | 0.00 | 81 | 1015.2 |
| 20260506185054 | 40 | 162 | 1.7 | 4.3 | 0.00 | 0.03 | 0.00 | 81 | 1015.1 |
| 20260506184609 | 40 | 137 | 0.9 | 3.5 | 0.00 | 0.03 | 0.00 | 81 | 1015.2 |
| 20260506184053 | 40 | 250 | 0.9 | 3.5 | 0.00 | 0.03 | 0.00 | 82 | 1015.2 |
| 20260506183554 | 41 | 238 | 0.9 | 3.5 | 0.00 | 0.03 | 0.00 | 82 | 1015.1 |
| 20260506183102 | 41 | 161 | 0.9 | 3.5 | 0.00 | 0.03 | 0.00 | 81 | 1015.1 |
| 20260506182553 | 41 | 0 | 0.9 | 3.5 | 0.00 | 0.03 | 0.00 | 82 | 1015.1 |
| 20260506182056 | 41 | 273 | 0.9 | 3.5 | 0.00 | 0.03 | 0.00 | 84 | 1015.1 |
| 20260506181552 | 41 | 238 | 0.9 | 1.7 | 0.00 | 0.03 | 0.00 | 83 | 1015.1 |
| 20260506181054 | 41 | 291 | 0.9 | 4.3 | 0.00 | 0.03 | 0.00 | 82 | 1015.0 |
| 20260506180555 | 41 | 0 | 0.9 | 6.1 | 0.00 | 0.03 | 0.00 | 82 | 1015.0 |
| 20260506180054 | 41 | 22 | 0.9 | 6.1 | 0.00 | 0.03 | 0.00 | 80 | 1015.0 |
| 20260506175552 | 41 | 137 | 0.9 | 4.3 | 0.00 | 0.03 | 0.00 | 80 | 1015.0 |
| 20260506175052 | 41 | 119 | 0.0 | 2.6 | 0.00 | 0.03 | 0.00 | 82 | 1015.0 |
| 20260506174551 | 41 | 67 | 0.9 | 2.6 | 0.00 | 0.03 | 0.00 | 82 | 1014.9 |
| 20260506174054 | 41 | 113 | 0.9 | 4.3 | 0.00 | 0.03 | 0.00 | 83 | 1014.9 |
| 20260506173551 | 40 | 146 | 0.9 | 5.2 | 0.00 | 0.03 | 0.00 | 84 | 1015.0 |
| 20260506173103 | 40 | 76 | 0.9 | 5.2 | 0.00 | 0.03 | 0.00 | 83 | 1014.9 |
| 20260506172554 | 40 | 169 | 1.7 | 4.3 | 0.00 | 0.03 | 0.00 | 83 | 1014.9 |
| 20260506172050 | 40 | 134 | 0.9 | 5.2 | 0.00 | 0.03 | 0.00 | 84 | 1014.8 |
| 20260506171555 | 40 | 0 | 0.9 | 5.2 | 0.00 | 0.03 | 0.00 | 84 | 1014.9 |
| 20260506171057 | 40 | 126 | 0.9 | 5.2 | 0.00 | 0.03 | 0.00 | 84 | 1014.8 |
| 20260506170554 | 40 | 178 | 1.7 | 5.2 | 0.00 | 0.03 | 0.00 | 83 | 1014.8 |
| 20260506170113 | 40 | 158 | 0.9 | 4.3 | 0.00 | 0.03 | 0.00 | 85 | 1014.7 |
| 20260506165553 | 40 | 171 | 0.9 | 4.3 | 0.00 | 0.03 | 0.00 | 83 | 1014.6 |
| 20260506165054 | 40 | 108 | 1.7 | 4.3 | 0.00 | 0.03 | 0.00 | 84 | 1014.7 |
| 20260506164552 | 40 | 190 | 0.9 | 4.3 | 0.00 | 0.03 | 0.00 | 83 | 1014.7 |
| 20260506164052 | 40 | 93 | 0.9 | 4.3 | 0.00 | 0.03 | 0.00 | 84 | 1014.6 |
| 20260506163555 | 40 | 108 | 0.9 | 4.3 | 0.00 | 0.03 | 0.00 | 85 | 1014.6 |
| 20260506163104 | 39 | 205 | 1.7 | 4.3 | 0.00 | 0.03 | 0.00 | 84 | 1014.5 |
| 20260506162553 | 39 | 128 | 1.7 | 4.3 | 0.00 | 0.03 | 0.00 | 85 | 1014.5 |
| 20260506162053 | 39 | 0 | 0.9 | 3.5 | 0.00 | 0.03 | 0.00 | 85 | 1014.5 |
| 20260506161554 | 39 | 165 | 0.9 | 2.6 | 0.00 | 0.03 | 0.00 | 86 | 1014.4 |
| 20260506161052 | 39 | 133 | 0.9 | 2.6 | 0.00 | 0.03 | 0.00 | 85 | 1014.3 |
| 20260506160553 | 39 | 126 | 0.9 | 3.5 | 0.00 | 0.03 | 0.00 | 85 | 1014.3 |
| 20260506160107 | 39 | 146 | 0.9 | 3.5 | 0.00 | 0.03 | 0.00 | 86 | 1014.3 |
| 20260506155550 | 39 | 105 | 0.9 | 2.6 | 0.00 | 0.03 | 0.00 | 87 | 1014.3 |
| 20260506155055 | 38 | 123 | 0.9 | 2.6 | 0.00 | 0.03 | 0.00 | 88 | 1014.2 |
| 20260506154604 | 38 | 0 | 0.0 | 1.7 | 0.00 | 0.03 | 0.00 | 88 | 1014.2 |
| 20260506154053 | 38 | 115 | 0.9 | 1.7 | 0.00 | 0.03 | 0.00 | 88 | 1014.1 |
| 20260506153554 | 38 | 93 | 0.9 | 1.7 | 0.00 | 0.03 | 0.00 | 88 | 1014.1 |
| 20260506153054 | 38 | 115 | 0.9 | 2.6 | 0.00 | 0.03 | 0.00 | 87 | 1014.1 |
| 20260506152553 | 38 | 93 | 0.9 | 2.6 | 0.00 | 0.03 | 0.00 | 88 | 1014.2 |
| 20260506152053 | 38 | 126 | 0.9 | 1.7 | 0.00 | 0.03 | 0.00 | 87 | 1014.2 |
| 20260506151558 | 38 | 129 | 0.9 | 1.7 | 0.00 | 0.03 | 0.00 | 87 | 1014.2 |
| 20260506151058 | 38 | 123 | 0.9 | 1.7 | 0.00 | 0.03 | 0.00 | 87 | 1014.1 |
| 20260506150552 | 38 | 165 | 0.9 | 1.7 | 0.00 | 0.03 | 0.00 | 87 | 1014.1 |
| 20260506150101 | 38 | 115 | 0.9 | 1.7 | 0.00 | 0.03 | 0.00 | 87 | 1014.1 |
| 20260506145554 | 38 | 119 | 0.0 | 0.9 | 0.00 | 0.03 | 0.00 | 88 | 1014.0 |
| 20260506145056 | 38 | 0 | 0.0 | 1.7 | 0.00 | 0.03 | 0.00 | 88 | 1014.1 |
| 20260506144606 | 38 | 126 | 0.0 | 1.7 | 0.00 | 0.03 | 0.00 | 88 | 1014.0 |
| 20260506144050 | 38 | 41 | 0.9 | 1.7 | 0.00 | 0.03 | 0.00 | 88 | 1014.0 |
| 20260506143550 | 37 | 126 | 0.0 | 1.7 | 0.00 | 0.03 | 0.00 | 88 | 1014.0 |
| 20260506143103 | 37 | 0 | 0.0 | 1.7 | 0.00 | 0.03 | 0.00 | 89 | 1014.0 |
| 20260506142552 | 37 | 129 | 0.0 | 2.6 | 0.00 | 0.03 | 0.00 | 89 | 1014.0 |
| 20260506142055 | 37 | 137 | 0.0 | 2.6 | 0.00 | 0.03 | 0.00 | 89 | 1014.0 |
| 20260506141555 | 37 | 0 | 0.9 | 2.6 | 0.00 | 0.03 | 0.00 | 89 | 1014.0 |
| 20260506141054 | 36 | 131 | 0.9 | 1.7 | 0.00 | 0.03 | 0.00 | 89 | 1014.0 |
| 20260506140553 | 36 | 119 | 0.9 | 1.7 | 0.00 | 0.03 | 0.00 | 89 | 1014.0 |
| 20260506140055 | 36 | 105 | 0.9 | 1.7 | 0.00 | 0.03 | 0.00 | 89 | 1014.0 |
| 20260506135553 | 36 | 119 | 0.9 | 1.7 | 0.00 | 0.03 | 0.00 | 89 | 1014.0 |
| 20260506135052 | 36 | 123 | 0.9 | 1.7 | 0.00 | 0.03 | 0.00 | 89 | 1014.0 |
| 20260506134601 | 36 | 93 | 0.9 | 1.7 | 0.00 | 0.03 | 0.00 | 89 | 1013.9 |
| 20260506134055 | 36 | 105 | 0.9 | 1.7 | 0.00 | 0.03 | 0.00 | 89 | 1013.9 |
| 20260506133556 | 36 | 146 | 0.9 | 1.7 | 0.00 | 0.03 | 0.00 | 89 | 1014.0 |
| 20260506133053 | 36 | 105 | 0.0 | 1.7 | 0.00 | 0.03 | 0.00 | 89 | 1013.9 |
| 20260506132554 | 36 | 105 | 0.9 | 2.6 | 0.00 | 0.03 | 0.00 | 89 | 1013.9 |
| 20260506132056 | 36 | 137 | 0.9 | 2.6 | 0.00 | 0.03 | 0.00 | 89 | 1013.8 |
| 20260506131557 | 36 | 111 | 0.9 | 2.6 | 0.00 | 0.03 | 0.00 | 89 | 1013.8 |
| 20260506131054 | 36 | 119 | 0.9 | 2.6 | 0.00 | 0.03 | 0.00 | 89 | 1013.7 |
| 20260506130553 | 36 | 115 | 0.9 | 2.6 | 0.00 | 0.03 | 0.00 | 89 | 1013.7 |
| 20260506125556 | 36 | 123 | 0.9 | 2.6 | 0.00 | 0.03 | 0.00 | 89 | 1013.7 |
| 20260506125053 | 36 | 110 | 0.9 | 2.6 | 0.00 | 0.03 | 0.00 | 89 | 1013.7 |
| 20260506124554 | 36 | 129 | 0.9 | 2.6 | 0.00 | 0.03 | 0.00 | 90 | 1013.6 |
| 20260506124053 | 36 | 111 | 0.9 | 2.6 | 0.00 | 0.03 | 0.00 | 90 | 1013.6 |
| 20260506123557 | 36 | 103 | 0.9 | 2.6 | 0.00 | 0.03 | 0.00 | 90 | 1013.7 |
| 20260506123054 | 36 | 119 | 0.9 | 2.6 | 0.00 | 0.03 | 0.00 | 89 | 1013.6 |
| 20260506122551 | 36 | 115 | 0.9 | 1.7 | 0.00 | 0.03 | 0.00 | 89 | 1013.5 |
| 20260506122053 | 36 | 129 | 0.9 | 2.6 | 0.00 | 0.03 | 0.00 | 89 | 1013.5 |
| 20260506121557 | 36 | 0 | 0.0 | 2.6 | 0.00 | 0.03 | 0.00 | 89 | 1013.4 |
| 20260506121050 | 36 | 126 | 0.0 | 1.7 | 0.00 | 0.03 | 0.00 | 89 | 1013.4 |
| 20260506120554 | 36 | 146 | 0.0 | 1.7 | 0.00 | 0.03 | 0.00 | 89 | 1013.4 |
| 20260506120057 | 36 | 0 | 0.0 | 1.7 | 0.00 | 0.03 | 0.00 | 89 | 1013.4 |
| 20260506115554 | 36 | 126 | 0.0 | 1.7 | 0.00 | 0.03 | 0.00 | 89 | 1013.4 |
| 20260506115052 | 36 | 146 | 0.9 | 2.6 | 0.00 | 0.03 | 0.00 | 88 | 1013.4 |
| 20260506114556 | 36 | 108 | 0.9 | 3.5 | 0.00 | 0.03 | 0.00 | 88 | 1013.3 |
| 20260506114052 | 36 | 115 | 0.9 | 3.5 | 0.00 | 0.03 | 0.00 | 88 | 1013.4 |
| 20260506113551 | 36 | 119 | 1.7 | 3.5 | 0.00 | 0.03 | 0.00 | 88 | 1013.2 |
| 20260506113056 | 36 | 105 | 0.0 | 3.5 | 0.00 | 0.03 | 0.00 | 88 | 1013.2 |
| 20260506112551 | 36 | 129 | 0.9 | 4.3 | 0.00 | 0.03 | 0.00 | 88 | 1013.3 |
| 20260506112050 | 36 | 119 | 0.9 | 4.3 | 0.00 | 0.03 | 0.00 | 88 | 1013.2 |
| 20260506111553 | 36 | 103 | 0.0 | 5.2 | 0.00 | 0.03 | 0.00 | 88 | 1013.2 |
| 20260506111054 | 36 | 156 | 0.9 | 5.2 | 0.00 | 0.03 | 0.00 | 87 | 1013.3 |
| 20260506110557 | 36 | 144 | 0.9 | 4.3 | 0.00 | 0.03 | 0.00 | 88 | 1013.1 |
| 20260506110057 | 36 | 61 | 0.9 | 4.3 | 0.00 | 0.03 | 0.00 | 88 | 1013.1 |